Moorhead, MN

11:40 AM CDT on June 29, 2017 (GMT -0500)
Moorhead Municipal

Weather History for KJKJ - January, 2012

Change the Weather History Date:

Sunday, January 29, 2012

  Actual Average (KFAR) Record (KFAR)
Temperature  
Mean Temperature 6 °F -  
Max Temperature 15 °F 17 °F 52 °F (1931)
Min Temperature -2 °F 0 °F -36 °F (1951)
Degree Days  
Heating Degree Days 58    
Moisture  
Dew Point 3 °F    
Average Humidity 85    
Maximum Humidity 92    
Minimum Humidity 73    
Precipitation  
Precipitation 0.00 in - - ()
Sea Level Pressure  
Sea Level Pressure 30.10 in    
Wind  
Wind Speed 9 mph (East)    
Max Wind Speed 20 mph    
Max Gust Speed -    
Visibility 10 miles    
Events Snow    
Averages and records for this station are not official NWS values.
T = Trace of Precipitation, MM = Missing Value Source: NWS Daily Summary

Daily Weather History Graph

Daily Weather History Graph

Search for Another Location

Airport or City:

Trip Planner

Search our weather history database for the weather conditions in past years. The results will help you decide how hot, cold, wet, or windy it might be!

Date:

Astronomy

Jan. 29, 2012 Rise Set
Actual Time 7:55 AM CST 5:24 PM CST
Civil Twilight 7:22 AM CST 5:57 PM CST
Nautical Twilight 6:45 AM CST 6:34 PM CST
Astronomical Twilight 6:10 AM CST 7:09 PM CST
Moon 10:17 AM CST No Moon Set
Length of Visible Light 10h 35m
Length of Day
9h 29m
Waxing Crescent, 37% of the Moon is Illuminated
Jan 29
Waxing Crescent
Jan 30
First Quarter
Feb 7
Full
Feb 14
Last Quarter
Feb 21
New

Hourly Weather History & Observations

Time (CST) Temp. Windchill Dew Point Humidity Pressure Visibility Wind Dir Wind Speed Gust Speed Precip Events Conditions
12:14 AM 15.8 °F 2.7 °F 12.2 °F 86% 30.06 in 10.0 mi North 11.5 mph - N/A Snow Light Snow
12:34 AM 15.8 °F -0.2 °F 12.2 °F 86% 30.06 in 10.0 mi North 17.3 mph - N/A   Overcast
12:54 AM 15.8 °F -0.6 °F 10.4 °F 79% 30.07 in 10.0 mi North 18.4 mph - N/A   Overcast
1:15 AM 12.2 °F -5.8 °F 8.6 °F 85% 30.08 in 7.0 mi North 19.6 mph - N/A   Overcast
1:34 AM 12.2 °F -3.1 °F 6.8 °F 79% 30.10 in 10.0 mi North 13.8 mph - N/A   Mostly Cloudy
1:54 AM 10.4 °F -4.8 °F 6.8 °F 85% 30.10 in 10.0 mi North 12.7 mph - N/A   Mostly Cloudy
2:14 AM 8.6 °F -2.6 °F 3.2 °F 79% 30.11 in 10.0 mi North 6.9 mph - N/A   Scattered Clouds
2:34 AM 6.8 °F -4.8 °F 3.2 °F 85% 30.12 in 10.0 mi North 6.9 mph - N/A   Clear
2:54 AM 6.8 °F -5.9 °F 1.4 °F 79% 30.12 in 10.0 mi North 8.1 mph - N/A   Clear
3:15 AM 3.2 °F -11.3 °F 1.4 °F 92% 30.13 in 10.0 mi North 9.2 mph - N/A   Clear
3:34 AM 3.2 °F -9.1 °F -0.4 °F 85% 30.13 in 10.0 mi North 6.9 mph - N/A   Clear
3:54 AM 1.4 °F -9.9 °F -0.4 °F 92% 30.13 in 10.0 mi North 5.8 mph - N/A   Clear
4:14 AM -0.4 °F -13.4 °F -2.2 °F 92% 30.14 in 10.0 mi NNW 6.9 mph - N/A   Clear
4:34 AM -0.4 °F -12.0 °F -2.2 °F 92% 30.14 in 10.0 mi NNW 5.8 mph - N/A   Clear
4:55 AM -0.4 °F -14.7 °F -2.2 °F 92% 30.15 in 10.0 mi NNW 8.1 mph - N/A   Clear
5:14 AM 1.4 °F -9.9 °F -2.2 °F 85% 30.16 in 10.0 mi NNW 5.8 mph - N/A   Clear
5:34 AM -0.4 °F -10.4 °F -2.2 °F 92% 30.16 in 10.0 mi NW 4.6 mph - N/A   Clear
5:54 AM -0.4 °F -10.4 °F -4.0 °F 85% 30.16 in 10.0 mi NNW 4.6 mph - N/A   Clear
6:14 AM -0.4 °F -10.4 °F -2.2 °F 92% 30.16 in 10.0 mi NNW 4.6 mph - N/A   Clear
6:34 AM -0.4 °F -12.0 °F -2.2 °F 92% 30.16 in 10.0 mi North 5.8 mph - N/A   Clear
6:54 AM -0.4 °F -10.4 °F -2.2 °F 92% 30.15 in 10.0 mi NNE 4.6 mph - N/A   Clear
7:14 AM -0.4 °F -8.3 °F -4.0 °F 85% 30.16 in 10.0 mi North 3.5 mph - N/A   Clear
7:34 AM -2.2 °F -10.4 °F -4.0 °F 92% 30.16 in 10.0 mi North 3.5 mph - N/A   Clear
7:54 AM -0.4 °F - -2.2 °F 92% 30.16 in 10.0 mi Calm Calm - N/A   Clear
8:14 AM -2.2 °F - -5.8 °F 85% 30.16 in 10.0 mi Calm Calm - N/A   Clear
8:32 AM -0.4 °F - -2.2 °F 92% 30.16 in 10.0 mi Calm Calm - N/A   Clear
8:54 AM -2.2 °F - -4.0 °F 92% 30.16 in 10.0 mi Calm Calm - N/A   Clear
9:14 AM -0.4 °F - -2.2 °F 92% 30.16 in 10.0 mi Calm Calm - N/A   Clear
9:34 AM -0.4 °F - -2.2 °F 92% 30.16 in 10.0 mi Calm Calm - N/A   Clear
9:54 AM 1.4 °F - -0.4 °F 92% 30.16 in 10.0 mi Calm Calm - N/A   Clear
10:15 AM 3.2 °F - -0.4 °F 85% 30.16 in 10.0 mi Calm Calm - N/A   Clear
10:34 AM 5.0 °F -2.1 °F 1.4 °F 85% 30.16 in 10.0 mi South 3.5 mph - N/A   Clear
11:15 AM 5.0 °F -5.6 °F 1.4 °F 85% 30.17 in 10.0 mi SSW 5.8 mph - N/A   Clear
11:34 AM 6.8 °F -2.0 °F 1.4 °F 79% 30.16 in 10.0 mi South 4.6 mph - N/A   Clear
11:54 AM 6.8 °F -3.5 °F 3.2 °F 85% 30.15 in 10.0 mi South 5.8 mph - N/A   Clear
12:15 PM 8.6 °F -2.6 °F 5.0 °F 85% 30.14 in 10.0 mi SSE 6.9 mph - N/A   Clear
12:34 PM 8.6 °F -1.3 °F 5.0 °F 85% 30.14 in 10.0 mi South 5.8 mph - N/A   Clear
12:54 PM 10.4 °F -0.4 °F 5.0 °F 79% 30.12 in 10.0 mi South 6.9 mph - N/A   Clear
1:15 PM 10.4 °F -1.5 °F 6.8 °F 85% 30.11 in 10.0 mi South 8.1 mph - N/A   Clear
1:34 PM 10.4 °F -0.4 °F 6.8 °F 85% 30.09 in 10.0 mi SSE 6.9 mph - N/A   Clear
1:55 PM 12.2 °F 0.7 °F 6.8 °F 79% 30.07 in 10.0 mi SSE 8.1 mph - N/A   Clear
2:14 PM 12.2 °F 0.7 °F 8.6 °F 85% 30.07 in 10.0 mi SSE 8.1 mph - N/A   Clear
2:34 PM 12.2 °F 0.7 °F 8.6 °F 85% 30.04 in 10.0 mi SSE 8.1 mph - N/A   Clear
2:55 PM 12.2 °F -0.2 °F 8.6 °F 85% 30.03 in 10.0 mi SSE 9.2 mph - N/A   Clear
3:14 PM 14.0 °F 2.0 °F 8.6 °F 79% 30.03 in 10.0 mi SSE 9.2 mph - N/A   Clear
3:34 PM 14.0 °F 1.2 °F 8.6 °F 79% 30.02 in 10.0 mi SSE 10.4 mph - N/A   Clear
3:55 PM 15.8 °F 3.4 °F 10.4 °F 79% 30.01 in 10.0 mi South 10.4 mph - N/A   Clear
4:14 PM 15.8 °F 5.1 °F 8.6 °F 73% 30.01 in 10.0 mi South 8.1 mph - N/A   Scattered Clouds
4:34 PM 14.0 °F 2.9 °F 8.6 °F 79% 30.00 in 10.0 mi South 8.1 mph - N/A   Scattered Clouds
4:55 PM 15.8 °F 2.7 °F 8.6 °F 73% 29.99 in 10.0 mi SSE 11.5 mph - N/A   Clear
5:14 PM 15.8 °F 3.4 °F 10.4 °F 79% 29.98 in 10.0 mi South 10.4 mph - N/A   Clear
5:34 PM 15.8 °F 2.1 °F 8.6 °F 73% 29.98 in 10.0 mi SSE 12.7 mph - N/A   Scattered Clouds
5:55 PM 15.8 °F 2.1 °F 10.4 °F 79% 29.96 in 10.0 mi SSE 12.7 mph - N/A   Overcast
5:59 PM 15.8 °F 3.4 °F 10.4 °F 79% 29.96 in 10.0 mi SSE 10.4 mph - N/A   Mostly Cloudy
6:34 PM 15.8 °F 2.1 °F 10.4 °F 79% 29.95 in 10.0 mi SSE 12.7 mph - N/A   Overcast
6:55 PM 15.8 °F 0.9 °F 10.4 °F 79% 29.93 in 7.0 mi SSE 15.0 mph 19.6 mph N/A   Overcast
7:14 PM 17.6 °F 2.7 °F 12.2 °F 79% 29.92 in 4.0 mi SSE 16.1 mph - N/A   Overcast
7:34 PM 17.6 °F 3.2 °F 12.2 °F 79% 29.91 in 3.0 mi SSE 15.0 mph 19.6 mph N/A Snow Light Snow
7:55 PM 17.6 °F 4.3 °F 14.0 °F 86% 29.90 in 2.5 mi SSE 12.7 mph 19.6 mph N/A Snow Light Snow
8:14 PM 17.6 °F 4.3 °F 15.8 °F 93% 29.89 in 2.0 mi SSE 12.7 mph - N/A Snow Light Snow
8:34 PM 17.6 °F 2.7 °F 15.8 °F 93% 29.87 in 2.0 mi SSE 16.1 mph 21.9 mph N/A Snow Light Snow
8:55 PM 17.6 °F 1.7 °F 15.8 °F 93% 29.85 in 5.0 mi SSE 18.4 mph - N/A   Overcast
9:14 PM 19.4 °F 3.6 °F 17.6 °F 93% 29.82 in 7.0 mi SSE 19.6 mph - N/A   Overcast
9:34 PM 19.4 °F 4.1 °F 17.6 °F 93% 29.81 in 7.0 mi SSE 18.4 mph 24.2 mph N/A   Overcast
9:55 PM 19.4 °F 5.0 °F 17.6 °F 93% 29.79 in 7.0 mi SSE 16.1 mph 24.2 mph N/A   Overcast
10:14 PM 19.4 °F 5.0 °F 17.6 °F 93% 29.78 in 5.0 mi SSE 16.1 mph 21.9 mph N/A Snow Light Snow
10:34 PM 21.2 °F 6.4 °F 17.6 °F 86% 29.77 in 10.0 mi SSE 18.4 mph 23.0 mph N/A   Overcast
11:14 PM 21.2 °F 6.8 °F 17.6 °F 86% 29.75 in 10.0 mi SSE 17.3 mph 23.0 mph N/A   Scattered Clouds
11:34 PM 21.2 °F 8.3 °F 17.6 °F 86% 29.74 in 10.0 mi SSE 13.8 mph - N/A   Scattered Clouds
11:55 PM 23.0 °F 9.6 °F 17.6 °F 80% 29.73 in 10.0 mi SSE 16.1 mph 20.7 mph N/A   Scattered Clouds